TimeEST,TemperatureF,Dew PointF,Humidity,Sea Level PressureIn,VisibilityMPH,Wind Direction,Wind SpeedMPH,Gust SpeedMPH,PrecipitationIn,Events,Conditions,WindDirDegrees,DateUTC
12:53 AM,27.0,23.0,85,30.63,10.0,Calm,Calm,-,N/A,,Clear,0,2012-11-19 05:53:00
1:53 AM,25.0,21.0,85,30.62,8.0,North,3.5,-,N/A,,Clear,360,2012-11-19 06:53:00
2:53 AM,25.0,21.9,88,30.61,8.0,North,4.6,-,N/A,,Clear,350,2012-11-19 07:53:00
3:53 AM,24.1,21.0,88,30.59,10.0,North,6.9,-,N/A,,Clear,360,2012-11-19 08:53:00
4:53 AM,24.1,21.0,88,30.58,10.0,NNW,5.8,-,N/A,,Clear,340,2012-11-19 09:53:00
5:53 AM,25.0,21.0,85,30.58,10.0,NNW,5.8,-,N/A,,Clear,330,2012-11-19 10:53:00
6:53 AM,25.0,21.0,85,30.57,10.0,North,5.8,-,N/A,,Clear,350,2012-11-19 11:53:00
7:53 AM,28.9,25.0,85,30.56,10.0,North,5.8,-,N/A,,Clear,350,2012-11-19 12:53:00
8:53 AM,34.0,27.0,75,30.56,10.0,NNW,5.8,-,N/A,,Clear,340,2012-11-19 13:53:00
9:53 AM,37.9,28.0,68,30.54,10.0,North,9.2,-,N/A,,Mostly Cloudy,360,2012-11-19 14:53:00
10:02 AM,39.2,28.4,65,30.51,10.0,North,10.4,-,N/A,,Scattered Clouds,360,2012-11-19 15:02:00
10:53 AM,43.0,28.9,58,30.51,10.0,North,5.8,-,N/A,,Clear,360,2012-11-19 15:53:00
11:53 AM,45.0,28.9,53,30.47,10.0,North,5.8,-,N/A,,Clear,10,2012-11-19 16:53:00
12:53 PM,46.9,30.0,52,30.43,10.0,NNW,4.6,-,N/A,,Clear,330,2012-11-19 17:53:00
1:53 PM,48.9,30.9,50,30.41,10.0,NNW,4.6,-,N/A,,Clear,330,2012-11-19 18:53:00
2:53 PM,48.9,30.0,48,30.39,10.0,North,4.6,-,N/A,,Clear,10,2012-11-19 19:53:00
3:53 PM,48.0,30.0,50,30.39,10.0,NW,3.5,-,N/A,,Clear,310,2012-11-19 20:53:00
4:53 PM,42.1,30.0,62,30.38,10.0,Calm,Calm,-,N/A,,Clear,0,2012-11-19 21:53:00
5:53 PM,35.1,28.0,76,30.38,10.0,North,3.5,-,N/A,,Clear,360,2012-11-19 22:53:00
6:53 PM,33.1,28.0,82,30.36,10.0,North,3.5,-,N/A,,Clear,350,2012-11-19 23:53:00
7:53 PM,32.0,28.0,85,30.35,10.0,NNE,3.5,-,N/A,,Clear,20,2012-11-20 00:53:00
8:53 PM,30.0,25.0,82,30.34,10.0,Calm,Calm,-,N/A,,Clear,0,2012-11-20 01:53:00
9:53 PM,28.0,24.1,85,30.32,10.0,Calm,Calm,-,N/A,,Clear,0,2012-11-20 02:53:00
10:53 PM,28.0,24.1,85,30.30,9.0,Calm,Calm,-,N/A,,Clear,0,2012-11-20 03:53:00
11:53 PM,28.0,24.1,85,30.29,10.0,Calm,Calm,-,N/A,,Clear,0,2012-11-20 04:53:00